Location: York
(31.8935°S, 116.7682°E)
Time: 17:13:48
(UTC+08:00)

Altair - Visible Passes

Search period start: 25 September 2022 00:00
Search period end: 05 October 2022 00:00
Orbit: 1501 x 1682 km, 47.2° (Epoch: 24 September)

Date Brightness Start Highest point End Pass type
(mag) Time Alt. Az. Time Alt. Az. Time Alt. Az.
25 Sep 8.5 03:46:13 26° N 03:46:13 26° N 03:50:38 10° N visible
25 Sep 7.6 18:44:15 10° NW 18:53:49 79° SW 19:03:09 10° SE visible
25 Sep 8.6 20:51:16 10° W 20:59:40 35° SSW 21:04:57 21° SE visible
25 Sep 9.0 22:58:39 10° SW 23:02:58 25° SSW 23:02:58 25° SSW visible
26 Sep 8.9 03:23:38 18° N 03:23:38 18° N 03:25:47 10° NNE visible
26 Sep 7.6 18:19:01 10° NW 18:28:38 85° SW 18:37:59 10° SE visible
26 Sep 8.5 20:25:50 10° W 20:34:21 37° SSW 20:41:16 15° SE visible
26 Sep 8.8 22:33:21 10° SW 22:39:18 29° SSW 22:39:18 29° SSW visible
27 Sep 8.5 20:00:24 10° W 20:09:01 38° SSW 20:17:31 10° SE visible
27 Sep 8.6 22:08:03 10° SW 22:15:33 31° S 22:15:33 31° S visible
28 Sep 9.6 00:13:25 10° SW 00:13:35 11° SW 00:13:35 11° SW visible
28 Sep 8.5 19:34:57 10° W 19:43:43 40° SSW 19:52:19 10° SE visible
28 Sep 8.6 21:42:42 10° SW 21:50:43 31° S 21:51:46 30° SSE visible
28 Sep 9.4 23:48:14 10° SW 23:49:47 16° SW 23:49:47 16° SW visible
29 Sep 8.5 19:09:31 10° W 19:18:25 42° SSW 19:27:07 10° SE visible
29 Sep 8.6 21:17:22 10° WSW 21:25:21 31° S 21:27:56 27° SSE visible
29 Sep 9.1 23:23:03 10° SW 23:25:56 22° SW 23:25:56 22° SW visible
30 Sep 8.4 18:44:06 10° W 18:53:07 45° SSW 19:01:56 10° SE visible
30 Sep 8.7 20:51:59 10° WSW 21:00:00 31° S 21:04:04 22° SE visible
30 Sep 8.8 22:57:52 10° SW 23:02:05 28° SSW 23:02:05 28° SSW visible
01 Oct 8.7 20:26:35 10° WSW 20:34:38 31° S 20:40:11 18° SE visible
01 Oct 8.6 22:32:40 10° SW 22:38:11 34° SSW 22:38:11 34° SSW visible
02 Oct 8.7 20:01:11 10° WSW 20:09:16 31° S 20:16:17 13° SE visible
02 Oct 8.3 22:07:27 10° SW 22:14:17 39° S 22:14:17 39° S visible
03 Oct 9.6 00:12:12 10° SW 00:12:18 10° SW 00:12:18 10° SW visible
03 Oct 8.7 19:35:46 10° WSW 19:43:54 31° S 19:51:53 10° SE visible
03 Oct 8.2 21:42:14 10° SW 21:50:23 40° SSE 21:50:23 40° SSE visible
03 Oct 9.4 23:47:00 10° SW 23:48:23 16° SW 23:48:23 16° SW visible
04 Oct 8.7 19:10:20 10° WSW 19:18:32 32° S 19:26:34 10° SE visible
04 Oct 8.2 21:17:01 10° SW 21:25:35 39° SSE 21:26:28 38° SSE visible
04 Oct 9.1 23:21:49 10° SW 23:24:29 22° SW 23:24:29 22° SW visible
